Ceredo, WV

6:59 AM EDT on September 26, 2016 (GMT -0400)
Tri-State / Ferguson

Weather History for KHTS - February, 2014

Change the Weather History Date:

Sunday, February 9, 2014

  Actual Average Record
Temperature  
Mean Temperature 30 °F 36 °F  
Max Temperature 34 °F 45 °F 74 °F (1937)
Min Temperature 26 °F 27 °F -24 °F (1899)
Degree Days  
Heating Degree Days 35 29  
Month to date heating degree days 292 267  
Since 1 July heating degree days 3203 2991  
Cooling Degree Days 0 0  
Month to date cooling degree days 0 0  
Year to date cooling degree days 0 0  
Moisture  
Dew Point 26 °F    
Average Humidity 81    
Maximum Humidity 92    
Minimum Humidity 69    
Precipitation  
Precipitation 0.03 in 0.10 in 1.22 in (1937)
Month to date precipitation 3.31 0.96  
Year to date precipitation 5.61 3.93  
Snow  
Snow T in - - ()
Month to date snowfall 2.0  
Since 1 September snowfall 21.7  
Snow Depth 0.00 in    
Sea Level Pressure  
Sea Level Pressure 30.11 in    
Wind  
Wind Speed 4 mph (WSW)    
Max Wind Speed 15 mph    
Max Gust Speed 26 mph    
Visibility 6 miles    
Events Rain , Snow    
T = Trace of Precipitation, MM = Missing Value Source: NWS Daily Summary

Daily Weather History Graph

Daily Weather History Graph

Search for Another Location

Airport or City:

Trip Planner

Search our weather history database for the weather conditions in past years. The results will help you decide how hot, cold, wet, or windy it might be!

Date:

Astronomy

Feb. 09, 2014 Rise Set
Actual Time 7:27 AM EST 6:01 PM EST
Civil Twilight 7:00 AM EST 6:29 PM EST
Nautical Twilight 6:28 AM EST 7:00 PM EST
Astronomical Twilight 5:58 AM EST 7:31 PM EST
Moon 1:42 PM EST (2/9) 3:30 AM EST (2/9)
Length of Visible Light 11h 29m
Length of Day
10h 34m
Waxing Gibbous, 77% of the Moon is Illuminated
Feb 9
Waxing Gibbous
Feb 14
Full
Feb 22
Last Quarter
Mar 1
New
Mar 8
First Quarter

Hourly Weather History & Observations

Time (EST) Temp. Windchill Dew Point Humidity Pressure Visibility Wind Dir Wind Speed Gust Speed Precip Events Conditions
12:12 AM 28.9 °F - 24.1 °F 82% 30.14 in 10.0 mi Calm Calm - N/A   Overcast
12:25 AM 28.9 °F 25.2 °F 24.1 °F 82% 30.14 in 10.0 mi SSE 3.5 mph - N/A   Overcast
12:51 AM 28.9 °F - 24.1 °F 82% 30.17 in 10.0 mi Calm Calm - N/A   Overcast
12:59 AM 28.9 °F - 24.1 °F 82% 30.14 in 10.0 mi Calm Calm - N/A   Overcast
1:51 AM 28.9 °F - 25.0 °F 85% 30.15 in 10.0 mi Calm Calm - N/A   Overcast
2:27 AM 28.9 °F - 25.0 °F 85% 30.12 in 9.0 mi Calm Calm - N/A   Overcast
2:51 AM 30.0 °F - 25.0 °F 82% 30.14 in 10.0 mi Calm Calm - N/A   Overcast
3:51 AM 30.0 °F - 25.0 °F 82% 30.13 in 9.0 mi Calm Calm - N/A   Overcast
4:51 AM 30.0 °F - 26.1 °F 85% 30.13 in 9.0 mi Calm Calm - N/A   Overcast
5:51 AM 30.0 °F 26.5 °F 26.1 °F 85% 30.11 in 5.0 mi ENE 3.5 mph - 0.00 in   Overcast
6:16 AM 28.9 °F - 26.1 °F 89% 30.08 in 7.0 mi Calm Calm - 0.00 in   Overcast
6:37 AM 28.9 °F - 27.0 °F 92% 30.09 in 8.0 mi Calm Calm - 0.00 in   Overcast
6:51 AM 28.9 °F - 27.0 °F 92% 30.11 in 8.0 mi Calm Calm - 0.00 in   Overcast
7:51 AM 30.0 °F - 27.0 °F 88% 30.10 in 9.0 mi Calm Calm - 0.00 in   Overcast
8:51 AM 30.9 °F - 27.0 °F 85% 30.09 in 5.0 mi Calm Calm - 0.00 in   Overcast
9:07 AM 30.9 °F - 27.0 °F 85% 30.07 in 1.8 mi Calm Calm - 0.00 in Snow Light Snow
9:21 AM 30.9 °F 27.5 °F 28.0 °F 89% 30.06 in 2.0 mi ESE 3.5 mph - 0.01 in Snow Light Snow
9:34 AM 30.9 °F - 28.0 °F 89% 30.06 in 4.0 mi Calm Calm - 0.01 in   Overcast
9:51 AM 30.9 °F - 28.0 °F 89% 30.09 in 6.0 mi Calm Calm - 0.01 in   Overcast
9:59 AM 30.9 °F 27.5 °F 28.9 °F 92% 30.06 in 5.0 mi SSW 3.5 mph - N/A   Overcast
10:14 AM 30.9 °F - 28.9 °F 92% 30.05 in 3.0 mi Calm Calm - 0.00 in   Overcast
10:25 AM 32.0 °F - 30.0 °F 92% 30.05 in 2.0 mi Calm Calm - 0.00 in Snow Light Snow
10:35 AM 32.0 °F 27.5 °F 30.0 °F 92% 30.04 in 1.2 mi SSW 4.6 mph - 0.00 in Snow Light Snow
10:51 AM 32.0 °F 27.5 °F 30.0 °F 92% 30.06 in 1.5 mi SSW 4.6 mph - 0.00 in Snow Light Snow
11:00 AM 32.0 °F 28.7 °F 30.0 °F 92% 30.04 in 1.8 mi SW 3.5 mph - 0.00 in Snow Light Snow
11:08 AM 33.1 °F 30.0 °F 30.9 °F 92% 30.04 in 2.5 mi SW 3.5 mph - 0.00 in Snow Light Snow
11:16 AM 33.1 °F 27.7 °F 30.9 °F 92% 30.05 in 3.0 mi WSW 5.8 mph - 0.00 in Snow Light Snow
11:47 AM 33.8 °F 27.0 °F 30.2 °F 87% 30.05 in 1.8 mi WSW 8.1 mph 26.5 mph 0.00 in Snow Light Snow
11:48 AM 34.0 °F 28.0 °F 30.9 °F 89% 30.06 in 1.8 mi West 6.9 mph 26.5 mph 0.00 in Snow Light Snow
11:58 AM 34.0 °F 28.0 °F 30.9 °F 89% 30.04 in 3.0 mi WSW 6.9 mph - 0.00 in Snow Light Snow
12:28 PM 34.0 °F 28.0 °F 30.9 °F 89% 30.03 in 2.5 mi WSW 6.9 mph - 0.00 in Snow Light Snow
12:32 PM 34.0 °F 28.8 °F 30.9 °F 89% 30.03 in 3.0 mi SW 5.8 mph - 0.00 in Snow Light Snow
12:44 PM 34.0 °F 27.2 °F 30.9 °F 89% 30.04 in 6.0 mi WSW 8.1 mph - 0.00 in   Overcast
12:51 PM 34.0 °F 28.0 °F 30.9 °F 89% 30.06 in 8.0 mi West 6.9 mph - 0.00 in   Overcast
1:32 PM 34.0 °F 25.5 °F 28.9 °F 82% 30.03 in 6.0 mi West 11.5 mph 19.6 mph 0.00 in Rain Light Rain
1:51 PM 34.0 °F 27.2 °F 28.9 °F 82% 30.05 in 8.0 mi West 8.1 mph - 0.00 in   Overcast
2:51 PM 34.0 °F 27.2 °F 27.0 °F 75% 30.06 in 10.0 mi West 8.1 mph 18.4 mph 0.00 in   Overcast
3:51 PM 32.0 °F 23.0 °F 26.1 °F 79% 30.09 in 10.0 mi West 11.5 mph 20.7 mph N/A   Overcast
4:51 PM 32.0 °F 25.6 °F 25.0 °F 75% 30.10 in 10.0 mi Variable 6.9 mph - N/A   Overcast
5:51 PM 30.9 °F 25.2 °F 24.1 °F 76% 30.15 in 10.0 mi Variable 5.8 mph - N/A   Overcast
6:51 PM 30.9 °F 24.3 °F 24.1 °F 76% 30.20 in 10.0 mi WNW 6.9 mph - N/A   Overcast
7:51 PM 30.0 °F 22.4 °F 21.9 °F 72% 30.21 in 10.0 mi WNW 8.1 mph - N/A   Overcast
8:51 PM 30.0 °F 26.5 °F 21.9 °F 72% 30.20 in 10.0 mi WNW 3.5 mph - N/A   Overcast
9:51 PM 28.9 °F 23.9 °F 21.0 °F 72% 30.22 in 10.0 mi WNW 4.6 mph - N/A   Overcast
10:08 PM 28.9 °F 21.1 °F 19.9 °F 69% 30.19 in 10.0 mi NW 8.1 mph - N/A   Overcast
10:43 PM 28.0 °F 20.8 °F 19.9 °F 72% 30.19 in 6.0 mi WNW 6.9 mph - 0.00 in Snow Light Snow
10:51 PM 28.0 °F 21.7 °F 19.9 °F 72% 30.22 in 5.0 mi WNW 5.8 mph - 0.00 in Snow Light Snow
11:10 PM 27.0 °F 23.0 °F 21.0 °F 78% 30.20 in 2.5 mi Variable 3.5 mph - 0.00 in Snow Light Snow
11:22 PM 27.0 °F - 21.9 °F 81% 30.20 in 1.5 mi Calm Calm - 0.01 in Snow Light Snow
11:51 PM 26.1 °F - 24.1 °F 92% 30.22 in 2.0 mi Calm Calm - 0.02 in Snow Light Snow